059  
ASUS43 KMPX 161210  
RWRMN  
WEATHER ROUNDUP FOR MINNESOTA  
NATIONAL WEATHER SERVICE TWIN CITIES/CHANHASSEN MN  
700 AM CDT TUE JUL 16 2019  
 
NOTE: "FAIR" INDICATES FEW OR NO CLOUDS BELOW 12,000 FEET WITH NO  
SIGNIFICANT WEATHER AND/OR S TO VISIBILITY
. N/A MEANS  
CURRENT SKY AND/OR WEATHER CONDITIONS ARE NOT AVAILABLE.  
 
MNZ060>063-068>070-161300-  
TWIN CITIES METRO  
 
CITY SKY/WX TMP DP RH WIND PRES REMARKS
 
TWIN CITIES PTSUNNY 72 64 76 W3 29.85S  
6HR MIN TEMP: 71; 6HR MAX TEMP: 72;  
 
ST PAUL FAIR 71 66 84 CALM 29.86R  
CRYSTAL FAIR 72 68 87 CALM 29.84R  
BLAINE MOSUNNY 72 70 94 CALM 29.85S  
LAKEVILLE FAIR 72 72 100 CALM 29.86R  
EDEN PRAIRIE CLOUDY 70 65 84 SW3 29.85R  
6HR MIN TEMP: 69; 6HR MAX TEMP: 72;  
 
SOUTH ST PAUL FAIR 71 66 85 CALM 29.85S  
LAKE ELMO N/A N/A N/A N/A CALM 29.87S  

 
MNZ001>005-007-008-013>017-022>024-027-028-161300-  
NORTHWEST MINNESOTA  
 
CITY SKY/WX TMP DP RH WIND PRES REMARKS
 
BEMIDJI FAIR 65 62 89 W6 29.88R  
HALLOCK MOSUNNY 63 61 94 CALM 29.86R  
ROSEAU FAIR 63 57 82 CALM 29.86R  
WARROAD FAIR 64 61 88 CALM 29.86R  
THIEF RVR FALL MOSUNNY 63 61 93 NW3 29.89R  
CROOKSTON PTSUNNY 63 63 100 CALM 29.88R  
FOSSTON PTSUNNY 61 59 94 CALM 29.89R  
DETROIT LAKES FAIR 68 63 83 CALM 29.90R  
MOORHEAD CLOUDY 66 64 94 N3 29.89R  
PARK RAPIDS FAIR 64 62 93 NW3 29.88R  

 
MNZ006-009>011-018-025>026-161300-  
NORTH CENTRAL MINNESOTA  
 
CITY SKY/WX TMP DP RH WIND PRES REMARKS
 
BAUDETTE FAIR 64 62 93 W6 29.85R  
FLAG ISLAND N/A 66 61 82 NW7 29.83R  
INTL FALLS FAIR 64 63 96 CALM 29.83R  
6HR MIN TEMP: 59; 6HR MAX TEMP: 65;  
 
WASKISH FAIR 66 63 88 NW5 29.86R  
BIG FORK FAIR 61 59 94 CALM 29.90R  
LONGVILLE FAIR 64 63 94 CALM 29.87R  
GRAND RAPIDS FAIR 68 66 93 W5 29.87R  
ORR FAIR 61 59 94 CALM 29.82R  
COOK FAIR 63 63 100 CALM 29.83S  
WALKER FAIR 63 62 97 CALM 29.88R  

 
MNZ012-019>021-037-161300-  
NORTHEAST MINNESOTA  
 
CITY SKY/WX TMP DP RH WIND PRES REMARKS
 
DULUTH FAIR 71 64 78 NW6 29.84R  
6HR MIN TEMP: 67; 6HR MAX TEMP: 72;  
 
ELY FAIR 63 63 100 CALM 29.83R  
HIBBING FAIR 62 62 100 CALM 29.84R  
EVELETH FAIR 66 65 96 CALM 29.85R  
DULUTH HARBOR PTSUNNY 72 63 73 SW7 29.82R  
TWO HARBORS FAIR 66 63 88 W3 29.81R  
SILVER BAY FAIR 66 64 94 CALM 29.80R  
GRAND MARAIS N/A 70 66 87 VRB5 29.75R  
G MARAIS ARPRT FAIR 66 61 82 NW3 29.81R  

 
MNZ029>031-032-039>041-046>048-054>057-064-161300-  
WEST CENTRAL MINNESOTA  
 
CITY SKY/WX TMP DP RH WIND PRES REMARKS
 
FERGUS FALLS FAIR 70 64 83 CALM 29.88R  
WHEATON CLEAR 70 64 83 CALM 29.90R  
MORRIS SUNNY 70 68 94 CALM 29.83R  
ALEXANDRIA FAIR 75 64 68 N5 29.90R  
WADENA FAIR 63 63 100 NW3 29.89R  
GLENWOOD FAIR 70 66 88 CALM 29.90R  
APPLETON CLEAR 72 66 83 N3 29.86R  
BENSON SUNNY 70 68 94 NE3 29.87R FOG  
ORTONVILLE N/A 72 66 83 NW3 29.88R  
MADISON CLEAR 72 70 94 NW3 29.87R  
WILLMAR FAIR 72 70 94 CALM 29.89R  

 
MNZ033>034-036-042>043-049>051-058-059-161300-  
CENTRAL MINNESOTA  
 
CITY SKY/WX TMP DP RH WIND PRES REMARKS
 
ST CLOUD FAIR 70 68 93 CALM 29.85S  
6HR MIN TEMP: 66; 6HR MAX TEMP: 72;  
 
SAUK CENTRE FAIR 68 67 96 CALM 29.89R  
PAYNESVILLE FAIR 68 68 100 CALM 29.88R  
AITKIN FAIR 64 63 94 CALM 29.86R  
PINE RIVER FAIR 61 59 94 CALM 29.91R  
BRAINERD FAIR 69 65 86 CALM 29.87R  
STAPLES FAIR 64 64 100 CALM 29.88R  
LITTLE FALLS FAIR 64 64 100 CALM 29.87R  
LITCHFIELD FAIR 79 75 89 CALM 29.86S  
BUFFALO FAIR 70 66 87 MISG 29.87R  
MAPLE LAKE N/A 71 70 97 CALM 29.87R  
HUTCHINSON MOSUNNY 69 68 98 CALM 29.87R  

 
MNZ037-044-045-052-053-161300-  
EAST CENTRAL MINNESOTA  
 
CITY SKY/WX TMP DP RH WIND PRES REMARKS
 
PRINCETON FAIR 70 70 100 CALM 29.85S FOG  
MORA FOG 66 66 100 CALM 29.87R VSB 1  
CAMBRIDGE FAIR 73 64 73 CALM 29.85S HAZE  
RUSH CITY FAIR 66 65 96 CALM 29.86R  
MOOSE LAKE PTSUNNY 64 63 94 CALM 29.84R FOG  
HINCKLEY FOG 68 68 100 W3 29.86R VSB 1/4  
CLOQUET FAIR 70 64 83 W6 29.85R  
MCGREGOR FAIR 66 64 94 CALM 29.87R  

 
MNZ071>073-080-081-089-090-097-098-161300-  
SOUTHWEST MINNESOTA  
 
CITY SKY/WX TMP DP RH WIND PRES REMARKS
 
MONTEVIDEO SUNNY 72 68 88 CALM 29.86R  
GRANITE FALLS SUNNY 72 71 96 CALM 29.87R  
CANBY CLEAR 71 67 88 W6 29.88S  
MARSHALL CLEAR 72 69 90 NW5 29.86R  
REDWOOD FALLS SUNNY 74 71 91 CALM 29.84R  
OLIVIA SUNNY 72 70 94 W5 29.84S  
PIPESTONE CLEAR 72 70 94 CALM 29.88S  
WINDOM SUNNY 72 66 83 S6 29.86S  
WORTHINGTON CLEAR 71 68 90 S6 29.89R  
JACKSON SUNNY 70 66 88 S10 29.88S  

 
MNZ065>067-074>077-082>085-091>093-161300-  
SOUTH CENTRAL MINNESOTA  
 
CITY SKY/WX TMP DP RH WIND PRES REMARKS
 
MANKATO FAIR 69 68 96 SW3 29.87R  
NEW ULM SUNNY 70 66 88 CALM 29.86R  
FAIRMONT SUNNY 71 68 90 S12 29.87R  
GLENCOE FAIR 70 70 100 CALM 29.85S  
OWATONNA FAIR 70 66 88 S6 29.87S  
WASECA FAIR 68 64 88 S5 29.88S  

 
MNZ078>079-086>088-094>096-161300-  
SOUTHEAST MINNESOTA  
 
CITY SKY/WX TMP DP RH WIND PRES REMARKS
 
ROCHESTER FAIR 69 65 86 SW10 29.88S  
6HR MIN TEMP: 66; 6HR MAX TEMP: 70; 6HR PCP: TRACE;  
 
RED WING FAIR 70 68 94 CALM 29.85S FOG  
STANTON FAIR 70 67 90 CALM 29.85S  
DODGE CENTER PTSUNNY 70 64 83 SW12 29.89R  
WINONA FAIR 70 68 94 CALM 29.88R  
AUSTIN FAIR 72 63 73 S3 29.89S  
PRESTON FAIR 67 65 92 S5 29.90S  

 
ABBREVIATIONS USED IN REMARKS  
TC - TEMPERATURES IN CELSIUS  
WCI - WIND CHILL INDEX  
HX - HEAT INDEX  
VSB - VISIBILITY  

 
 
 
CLICK HERE TO GO TO PREVIOUS BULLETINS.

The Nexlab MN Page Main Text Page